VARNA current weather conditions

sailwx.info

Wind from 270 at 13 knots

Air temperature 10.0° C
Visibility: greater than 5.4 NM
Dewpoint -5.0° C

Last reported at 2020-Jan-22 12:00 UTC.
Time now 2020-Jan-22 13:27 UTC

Location: N 43°13' E 027°49'.
View on Google Maps.

See reports from other nearby stations

  
Tides and Currents Weather Stations Pressure Air Temp Water Temp Dewpoint Dewpoint Depression Visibility Wind Speed Wind Dir Waves Ship Positions
date/time (UTC)wind fromknots sea level pressurealtimeterstation pressurevisibilityair tempwater tempwave heightnotes
2020-Jan-22 13:00 260 11 5.410.0
2020-Jan-22 12:30 270 11 5.411.0
2020-Jan-22 12:00 270 13 5.410.0
2020-Jan-22 11:30 270 15 5.410.0
2020-Jan-22 11:00 260 11 5.4 9.0
2020-Jan-22 10:30 270 12 5.4 8.0
2020-Jan-22 10:00 280 13 5.4 8.0
2020-Jan-22 09:30 280 13 5.4 7.0
2020-Jan-22 09:00 270 13 5.4 5.0
2020-Jan-22 08:30 280 14 5.4 4.0
2020-Jan-22 08:00 280 13 5.4 4.0
2020-Jan-22 07:30 260 13 5.4 2.0
2020-Jan-22 07:00 250 13 5.4 1.0
2020-Jan-22 06:30 250 6 5.4-0.0
2020-Jan-22 06:00 260 7 5.4-0.0
2020-Jan-22 05:30 270 8 5.4-0.0
2020-Jan-22 05:00 270 6 5.4-1.0
2020-Jan-22 04:30 270 6 5.4-1.0
2020-Jan-22 04:00 270 8 5.4-0.0
2020-Jan-22 03:30 270 8 5.4-0.0
2020-Jan-22 03:00 270 7 5.4-0.0
2020-Jan-22 02:30 280 11 5.4-0.0
2020-Jan-22 02:00 280 13 5.4-0.0
2020-Jan-22 01:30 270 11 5.4-0.0
2020-Jan-22 01:00 260 6 5.4 1.0
2020-Jan-22 00:30 280 8 5.4-0.0
2020-Jan-22 00:00 270 6 5.4-0.0
2020-Jan-21 23:30 270 7 5.4-0.0
2020-Jan-21 23:00 270 9 5.4-0.0
2020-Jan-21 22:30 260 6 5.4-0.0
2020-Jan-21 22:00 290 6 5.4-1.0
2020-Jan-21 21:30 280 8 5.4-1.0
2020-Jan-21 21:00 270 11 5.4 1.0
2020-Jan-21 20:30 270 8 5.4-0.0
2020-Jan-21 20:00 260 6 5.4 1.0
2020-Jan-21 19:30 280 9 5.4 1.0
2020-Jan-21 19:00 280 8 5.4 1.0
2020-Jan-21 18:30 290 7 5.4 1.0
2020-Jan-21 18:00 270 6 5.4 1.0
2020-Jan-21 17:30 280 6 5.4 1.0
2020-Jan-21 17:00 310 8 5.4 2.0
2020-Jan-21 16:30 300 7 5.4 2.0
2020-Jan-21 16:00 290 6 5.4 2.0
2020-Jan-21 15:30 270 6 5.4 3.0
2020-Jan-21 15:00 310 9 5.4 4.0
2020-Jan-21 14:30 310 11 5.4 6.0
2020-Jan-21 14:00 300 12 5.4 6.0
2020-Jan-21 13:30 300 14 5.4 6.0
2020-Jan-21 13:00 280 14 5.4 7.0
2020-Jan-21 12:30 270 13 5.4 6.0
2020-Jan-21 12:00 280 13 5.4 6.0
2020-Jan-21 11:30 270 13 5.4 5.0
2020-Jan-21 11:00 270 12 5.4 5.0
2020-Jan-21 10:30 280 13 5.4 4.0
2020-Jan-21 10:00 270 13 5.4 4.0
2020-Jan-21 09:30 260 13 5.4 4.0
2020-Jan-21 09:00 260 12 5.4 3.0
2020-Jan-21 08:30 260 12 5.4 2.0
2020-Jan-21 08:00 250 9 5.4 2.0
2020-Jan-21 07:30 260 7 5.4 1.0
2020-Jan-21 07:00 300 6 5.4-0.0
2020-Jan-21 06:30 290 6 5.4-1.0
2020-Jan-21 06:00 280 6 5.4-1.0
2020-Jan-21 05:30 270 6 5.4-1.0
2020-Jan-21 05:00 270 7 5.4-0.0
2020-Jan-21 04:30 280 7 5.4-0.0
2020-Jan-21 04:00 280 6 5.4-0.0
2020-Jan-21 03:30 300 6 5.4-0.0
2020-Jan-21 03:00 320 6 5.4-0.0
2020-Jan-21 02:30 310 7 5.4-0.0
2020-Jan-21 02:00 310 6 5.4 1.0
2020-Jan-21 01:30 310 6 5.4 1.0
2020-Jan-21 01:00 310 6 5.4 1.0
2020-Jan-21 00:30 320 6 5.4 1.0
2020-Jan-21 00:00 300 6 5.4 1.0
2020-Jan-20 23:30 300 7 5.4 1.0
2020-Jan-20 23:00 280 6 5.4-0.0
2020-Jan-20 22:30 270 7 5.4-0.0
2020-Jan-20 22:00 280 6 5.4-0.0
2020-Jan-20 21:30 270 6 5.4-0.0
2020-Jan-20 21:00 290 6 5.4-0.0
2020-Jan-20 20:30 310 5 5.4 1.0
2020-Jan-20 20:00 320 5 5.4 1.0
2020-Jan-20 19:30 320 4 5.4 1.0
2020-Jan-20 19:00 5.4 1.0
2020-Jan-20 18:30 330 4 5.4 1.0
2020-Jan-20 18:00 310 6 5.4 1.0
2020-Jan-20 17:30 310 6 5.4 1.0
2020-Jan-20 17:00 310 6 5.4 1.0
2020-Jan-20 16:30 300 5 5.4 1.0
2020-Jan-20 16:00 310 6 5.4 2.0
2020-Jan-20 15:30 310 6 5.4 2.0
2020-Jan-20 15:00 320 6 5.4 2.0
2020-Jan-20 14:30 330 9 5.4 2.0
2020-Jan-20 14:00 340 7 5.4 2.0
2020-Jan-20 13:30 350 12 5.4 1.0
2020-Jan-20 13:00 330 12 5.4 1.0